Time,TemperatureF,DewpointF,PressureIn,WindDirection,WindDirectionDegrees,WindSpeedMPH,WindSpeedGustMPH,Humidity,HourlyPrecipIn,Conditions,Clouds,dailyrainin,SoftwareType,DateUTC
2013-03-15 00:08:00,28.3,25.0,30.02,NW,306,2.0,4.0,88,0.00,,,0.00,weatherlink.com 1.10,2013-03-15 05:08:00,
2013-03-15 00:23:00,28.4,25.0,30.01,NW,306,2.0,4.0,87,0.00,,,0.00,weatherlink.com 1.10,2013-03-15 05:23:00,
2013-03-15 00:38:00,28.4,25.0,30.01,NW,306,2.0,5.0,87,0.00,,,0.00,weatherlink.com 1.10,2013-03-15 05:38:00,
2013-03-15 00:53:00,28.8,25.0,30.00,NW,304,2.0,4.0,87,0.00,,,0.00,weatherlink.com 1.10,2013-03-15 05:53:00,
2013-03-15 01:09:00,29.3,26.0,29.99,WNW,302,3.0,5.0,86,0.00,,,0.00,weatherlink.com 1.10,2013-03-15 06:09:00,
2013-03-15 01:24:00,29.6,26.0,29.99,WNW,288,4.0,6.0,86,0.00,,,0.00,weatherlink.com 1.10,2013-03-15 06:24:00,
2013-03-15 01:39:00,29.5,26.0,29.99,WNW,283,1.0,5.0,85,0.00,,,0.00,weatherlink.com 1.10,2013-03-15 06:39:00,
2013-03-15 01:54:00,29.8,26.0,29.98,WNW,282,3.0,7.0,86,0.00,,,0.00,weatherlink.com 1.10,2013-03-15 06:54:00,
2013-03-15 02:09:00,30.0,26.0,29.98,WNW,282,2.0,5.0,85,0.00,,,0.00,weatherlink.com 1.10,2013-03-15 07:09:00,
2013-03-15 02:24:00,30.0,26.0,29.97,WNW,282,2.0,4.0,85,0.00,,,0.00,weatherlink.com 1.10,2013-03-15 07:24:00,
2013-03-15 02:39:00,30.3,26.0,29.96,West,277,2.0,6.0,85,0.00,,,0.00,weatherlink.com 1.10,2013-03-15 07:39:00,
2013-03-15 02:54:00,30.6,27.0,29.95,West,277,3.0,4.0,85,0.00,,,0.00,weatherlink.com 1.10,2013-03-15 07:54:00,
2013-03-15 03:09:00,30.9,27.0,29.94,West,277,0.0,3.0,85,0.00,,,0.00,weatherlink.com 1.10,2013-03-15 08:09:00,
2013-03-15 03:24:00,30.8,27.0,29.94,West,277,0.0,3.0,84,0.00,,,0.00,weatherlink.com 1.10,2013-03-15 08:24:00,
2013-03-15 03:39:00,30.6,27.0,29.94,West,277,0.0,3.0,85,0.00,,,0.00,weatherlink.com 1.10,2013-03-15 08:39:00,
2013-03-15 03:54:00,30.2,26.0,29.95,West,276,3.0,6.0,85,0.00,,,0.00,weatherlink.com 1.10,2013-03-15 08:54:00,
2013-03-15 04:09:00,30.0,26.0,29.94,West,276,1.0,3.0,85,0.00,,,0.00,weatherlink.com 1.10,2013-03-15 09:09:00,
2013-03-15 04:24:00,29.8,26.0,29.94,West,277,3.0,6.0,86,0.00,,,0.00,weatherlink.com 1.10,2013-03-15 09:24:00,
2013-03-15 04:39:00,30.1,26.0,29.93,West,276,2.0,4.0,86,0.00,,,0.00,weatherlink.com 1.10,2013-03-15 09:39:00,
2013-03-15 04:54:00,30.2,27.0,29.92,West,277,2.0,4.0,86,0.00,,,0.00,weatherlink.com 1.10,2013-03-15 09:54:00,
2013-03-15 05:09:00,30.5,27.0,29.92,West,275,4.0,5.0,86,0.00,,,0.00,weatherlink.com 1.10,2013-03-15 10:09:00,
2013-03-15 05:24:00,30.7,27.0,29.93,West,274,2.0,6.0,86,0.00,,,0.00,weatherlink.com 1.10,2013-03-15 10:24:00,
2013-03-15 05:39:00,30.8,27.0,29.93,West,273,3.0,8.0,87,0.00,,,0.00,weatherlink.com 1.10,2013-03-15 10:39:00,
2013-03-15 05:54:00,31.0,28.0,29.93,West,275,1.0,7.0,87,0.00,,,0.00,weatherlink.com 1.10,2013-03-15 10:54:00,
2013-03-15 06:09:00,31.3,28.0,29.93,West,275,3.0,6.0,87,0.00,,,0.00,weatherlink.com 1.10,2013-03-15 11:09:00,
2013-03-15 06:24:00,31.4,28.0,29.92,West,277,0.0,7.0,87,0.00,,,0.00,weatherlink.com 1.10,2013-03-15 11:24:00,
2013-03-15 06:39:00,31.6,29.0,29.92,West,277,1.0,5.0,88,0.00,,,0.00,weatherlink.com 1.10,2013-03-15 11:39:00,
2013-03-15 06:54:00,31.5,28.0,29.92,West,277,3.0,6.0,88,0.00,,,0.00,weatherlink.com 1.10,2013-03-15 11:54:00,
2013-03-15 07:09:00,31.7,29.0,29.91,West,277,0.0,3.0,88,0.00,,,0.00,weatherlink.com 1.10,2013-03-15 12:09:00,
2013-03-15 07:24:00,31.9,29.0,29.88,West,277,0.0,0.0,88,0.00,,,0.00,weatherlink.com 1.10,2013-03-15 12:24:00,
2013-03-15 07:39:00,31.9,29.0,29.87,West,277,0.0,0.0,88,0.00,,,0.00,weatherlink.com 1.10,2013-03-15 12:39:00,
2013-03-15 07:54:00,31.9,29.0,29.86,West,277,0.0,0.0,89,0.00,,,0.00,weatherlink.com 1.10,2013-03-15 12:54:00,
2013-03-15 08:09:00,32.3,30.0,29.86,West,277,0.0,2.0,89,0.00,,,0.00,weatherlink.com 1.10,2013-03-15 13:09:00,
2013-03-15 08:24:00,33.1,30.0,29.86,West,277,0.0,3.0,89,0.00,,,0.00,weatherlink.com 1.10,2013-03-15 13:24:00,
2013-03-15 08:39:00,33.4,31.0,29.85,NE,49,3.0,6.0,89,0.00,,,0.00,weatherlink.com 1.10,2013-03-15 13:39:00,
2013-03-15 08:55:00,33.4,30.0,29.84,NE,55,2.0,6.0,88,0.00,,,0.00,weatherlink.com 1.10,2013-03-15 13:55:00,
2013-03-15 09:09:00,33.5,30.0,29.84,ENE,61,3.0,8.0,88,0.00,,,0.00,weatherlink.com 1.10,2013-03-15 14:09:00,
2013-03-15 09:24:00,33.5,30.0,29.84,ENE,61,4.0,7.0,88,0.00,,,0.00,weatherlink.com 1.10,2013-03-15 14:24:00,
2013-03-15 09:39:00,33.8,31.0,29.83,ESE,104,3.0,8.0,88,0.00,,,0.00,weatherlink.com 1.10,2013-03-15 14:39:00,
2013-03-15 09:54:00,34.2,31.0,29.84,ENE,74,3.0,4.0,88,0.00,,,0.00,weatherlink.com 1.10,2013-03-15 14:54:00,
2013-03-15 10:10:00,34.6,31.0,29.84,ENE,60,1.0,5.0,87,0.00,,,0.00,weatherlink.com 1.10,2013-03-15 15:10:00,
2013-03-15 10:25:00,34.7,31.0,29.84,ENE,65,4.0,8.0,87,0.00,,,0.00,weatherlink.com 1.10,2013-03-15 15:25:00,
2013-03-15 10:40:00,35.2,31.0,29.84,NE,55,0.0,6.0,86,0.00,,,0.00,weatherlink.com 1.10,2013-03-15 15:40:00,
2013-03-15 10:55:00,35.6,32.0,29.84,NE,45,4.0,6.0,85,0.00,,,0.00,weatherlink.com 1.10,2013-03-15 15:55:00,
2013-03-15 11:10:00,35.7,32.0,29.84,East,92,0.0,6.0,85,0.00,,,0.00,weatherlink.com 1.10,2013-03-15 16:10:00,
2013-03-15 11:25:00,36.1,32.0,29.84,East,99,5.0,9.0,84,0.00,,,0.00,weatherlink.com 1.10,2013-03-15 16:25:00,
2013-03-15 11:40:00,36.1,31.0,29.83,East,80,2.0,8.0,83,0.00,,,0.00,weatherlink.com 1.10,2013-03-15 16:40:00,
2013-03-15 11:55:00,36.7,32.0,29.82,ESE,103,4.0,7.0,82,0.00,,,0.00,weatherlink.com 1.10,2013-03-15 16:55:00,
2013-03-15 12:10:00,36.6,31.0,29.82,East,98,3.0,9.0,81,0.00,,,0.00,weatherlink.com 1.10,2013-03-15 17:10:00,
2013-03-15 12:25:00,36.4,31.0,29.82,SE,146,4.0,7.0,81,0.00,,,0.00,weatherlink.com 1.10,2013-03-15 17:25:00,
2013-03-15 12:40:00,36.3,31.0,29.81,SE,142,2.0,8.0,81,0.00,,,0.00,weatherlink.com 1.10,2013-03-15 17:40:00,
2013-03-15 12:55:00,36.1,31.0,29.80,SE,136,3.0,7.0,81,0.00,,,0.00,weatherlink.com 1.10,2013-03-15 17:55:00,
2013-03-15 13:10:00,36.9,32.0,29.80,East,79,5.0,10.0,81,0.00,,,0.00,weatherlink.com 1.10,2013-03-15 18:10:00,
2013-03-15 13:25:00,36.7,31.0,29.79,SE,139,4.0,9.0,81,0.00,,,0.00,weatherlink.com 1.10,2013-03-15 18:25:00,
2013-03-15 13:55:00,37.4,32.0,29.78,SE,134,3.0,6.0,81,0.00,,,0.00,weatherlink.com 1.10,2013-03-15 18:55:00,
2013-03-15 14:10:00,38.7,33.0,29.77,SE,131,2.0,5.0,79,0.00,,,0.00,weatherlink.com 1.10,2013-03-15 19:10:00,
2013-03-15 14:25:00,37.9,32.0,29.77,East,89,5.0,8.0,79,0.00,,,0.00,weatherlink.com 1.10,2013-03-15 19:25:00,
2013-03-15 14:40:00,37.8,32.0,29.78,East,90,1.0,7.0,79,0.00,,,0.00,weatherlink.com 1.10,2013-03-15 19:40:00,
2013-03-15 14:55:00,38.3,32.0,29.79,ENE,62,5.0,7.0,78,0.00,,,0.00,weatherlink.com 1.10,2013-03-15 19:55:00,
2013-03-15 15:10:00,37.9,32.0,29.78,ENE,57,3.0,7.0,79,0.00,,,0.00,weatherlink.com 1.10,2013-03-15 20:10:00,
2013-03-15 15:25:00,37.4,31.0,29.77,NE,55,4.0,12.0,79,0.00,,,0.00,weatherlink.com 1.10,2013-03-15 20:25:00,
2013-03-15 15:40:00,37.3,31.0,29.77,NE,51,5.0,10.0,79,0.00,,,0.00,weatherlink.com 1.10,2013-03-15 20:40:00,
2013-03-15 15:55:00,36.8,31.0,29.77,NE,53,1.0,10.0,79,0.00,,,0.00,weatherlink.com 1.10,2013-03-15 20:55:00,
2013-03-15 16:10:00,36.9,31.0,29.76,NE,46,6.0,9.0,79,0.00,,,0.00,weatherlink.com 1.10,2013-03-15 21:10:00,
2013-03-15 16:25:00,36.7,31.0,29.76,ENE,61,0.0,7.0,80,0.00,,,0.00,weatherlink.com 1.10,2013-03-15 21:25:00,
2013-03-15 16:40:00,37.6,32.0,29.76,NE,53,1.0,6.0,79,0.00,,,0.00,weatherlink.com 1.10,2013-03-15 21:40:00,
2013-03-15 16:55:00,37.0,31.0,29.78,NE,56,5.0,8.0,78,0.00,,,0.00,weatherlink.com 1.10,2013-03-15 21:55:00,
2013-03-15 17:10:00,36.2,31.0,29.78,ENE,59,7.0,8.0,80,0.00,,,0.00,weatherlink.com 1.10,2013-03-15 22:10:00,
2013-03-15 17:25:00,35.8,31.0,29.78,ENE,57,4.0,7.0,81,0.00,,,0.00,weatherlink.com 1.10,2013-03-15 22:25:00,
2013-03-15 17:40:00,35.8,31.0,29.77,ENE,58,4.0,6.0,81,0.00,,,0.00,weatherlink.com 1.10,2013-03-15 22:40:00,
2013-03-15 17:55:00,35.7,30.0,29.75,ENE,60,2.0,5.0,81,0.00,,,0.00,weatherlink.com 1.10,2013-03-15 22:55:00,
2013-03-15 18:10:00,35.4,30.0,29.74,ENE,78,7.0,7.0,82,0.00,,,0.00,weatherlink.com 1.10,2013-03-15 23:10:00,
2013-03-15 18:25:00,35.3,30.0,29.72,ESE,111,5.0,9.0,82,0.00,,,0.00,weatherlink.com 1.10,2013-03-15 23:25:00,
2013-03-15 18:40:00,35.0,30.0,29.72,East,94,6.0,9.0,83,0.00,,,0.00,weatherlink.com 1.10,2013-03-15 23:40:00,
2013-03-15 18:55:00,34.8,30.0,29.73,East,91,0.0,7.0,83,0.00,,,0.00,weatherlink.com 1.10,2013-03-15 23:55:00,
2013-03-15 19:10:00,34.6,30.0,29.73,ESE,105,3.0,5.0,84,0.00,,,0.00,weatherlink.com 1.10,2013-03-16 00:10:00,
2013-03-15 19:25:00,34.4,30.0,29.72,ESE,107,3.0,4.0,84,0.00,,,0.00,weatherlink.com 1.10,2013-03-16 00:25:00,
2013-03-15 19:40:00,34.0,30.0,29.72,ESE,102,2.0,5.0,84,0.00,,,0.00,weatherlink.com 1.10,2013-03-16 00:40:00,
2013-03-15 19:55:00,33.5,30.0,29.71,East,88,1.0,9.0,85,0.00,,,0.00,weatherlink.com 1.10,2013-03-16 00:55:00,
2013-03-15 20:10:00,33.5,30.0,29.72,ESE,118,0.0,6.0,86,0.00,,,0.00,weatherlink.com 1.10,2013-03-16 01:10:00,
2013-03-15 20:25:00,33.3,30.0,29.75,ESE,118,0.0,4.0,86,0.00,,,0.00,weatherlink.com 1.10,2013-03-16 01:25:00,
2013-03-15 20:40:00,33.3,30.0,29.74,ESE,118,0.0,3.0,87,0.00,,,0.00,weatherlink.com 1.10,2013-03-16 01:40:00,
2013-03-15 20:55:00,33.2,30.0,29.72,ESE,118,0.0,2.0,87,0.00,,,0.00,weatherlink.com 1.10,2013-03-16 01:55:00,
2013-03-15 21:10:00,33.0,30.0,29.73,ESE,117,0.0,1.0,87,0.00,,,0.00,weatherlink.com 1.10,2013-03-16 02:10:00,
2013-03-15 21:25:00,33.3,30.0,29.79,NW,315,2.0,11.0,87,0.00,,,0.00,weatherlink.com 1.10,2013-03-16 02:25:00,
2013-03-15 21:40:00,33.0,30.0,29.79,NNW,338,1.0,6.0,88,0.00,,,0.00,weatherlink.com 1.10,2013-03-16 02:40:00,
2013-03-15 21:55:00,32.9,30.0,29.78,NNW,337,3.0,6.0,88,0.00,,,0.00,weatherlink.com 1.10,2013-03-16 02:55:00,
2013-03-15 22:10:00,32.8,30.0,29.79,NNW,330,2.0,5.0,89,0.00,,,0.00,weatherlink.com 1.10,2013-03-16 03:10:00,
2013-03-15 22:25:00,32.6,30.0,29.80,NW,323,4.0,6.0,89,0.00,,,0.00,weatherlink.com 1.10,2013-03-16 03:25:00,
2013-03-15 22:40:00,32.5,30.0,29.82,NNW,337,7.0,11.0,90,0.00,,,0.00,weatherlink.com 1.10,2013-03-16 03:40:00,
2013-03-15 22:55:00,32.5,30.0,29.80,NW,325,2.0,7.0,90,0.00,,,0.00,weatherlink.com 1.10,2013-03-16 03:55:00,
2013-03-15 23:10:00,32.4,30.0,29.79,NNW,339,3.0,7.0,90,0.00,,,0.00,weatherlink.com 1.10,2013-03-16 04:10:00,
2013-03-15 23:25:00,32.3,30.0,29.79,NNW,338,2.0,4.0,91,0.00,,,0.00,weatherlink.com 1.10,2013-03-16 04:25:00,
2013-03-15 23:40:00,32.3,30.0,29.79,NNW,338,1.0,5.0,91,0.00,,,0.00,weatherlink.com 1.10,2013-03-16 04:40:00,
2013-03-15 23:56:00,32.2,30.0,29.78,NNW,338,0.0,4.0,91,0.00,,,0.00,weatherlink.com 1.10,2013-03-16 04:56:00,